Location: Kuffner-Sternwarte
(48.2130°N, 16.2960°E)
Time: 03:28:26
(UTC+02:00)

COROT - Pass Details

Date: 27 March 2017
Orbit: 600 x 890 km, 90.0° (Epoch: 20 September)

Event Time Altitude Azimuth Distance (km) Brightness Sun altitude
Rises 02:14:28 0° 354° (N) 3,109 9.9 -36.7°
Reaches altitude 10° 02:16:49 10° 346° (NNW) 2,230 8.9 -36.5°
Enters shadow 02:18:01 17° 339° (NNW) 1,818 8.3 -36.4°
